CAPE
84 67 370 456 511 443 925 1196 1628 1580 1572 1220 863 325 106 67 74 95 176 394 209 2 0 35 6 72 102 96 201 149 128 56 109
200 85 108 447 737 965 1216 1293 1552 1474 1464 1403 919 340 576 576 395 220 126 188 152 61 211 96 129 82 60 159 166 30 55 131 11
17 246 269 273 567 1184 1643 1534 1595 1323 1295 1526 671 551 708 605 204 174 295 246 149 175 155 182 214 214 230 200 212 188 47 41 47
0 16 383 630 716 1389 1960 1514 1499 945 1038 1289 670 381 500 151 0 0 132 135 105 100 222 249 283 278 243 257 206 254 116 84 240
0 41 140 984 940 1580 2095 1594 1342 781 590 783 638 486 467 276 115 26 20 60 93 84 95 92 83 154 236 359 385 315 119 172 276
44 53 896 1387 1185 1247 1966 1769 1422 666 382 430 447 434 310 194 175 205 251 255 270 181 136 84 240 335 239 286 375 381 396 363 275
12 225 294 1562 1351 1268 1685 1770 1284 699 289 165 224 258 356 331 339 385 399 377 474 236 340 411 453 308 253 182 339 380 433 344 369
0 40 469 1364 1379 1492 1656 1666 1058 782 304 197 112 126 178 224 296 429 557 566 440 375 369 488 403 201 333 562 546 385 329 303 281
0 0 0 422 1507 1353 1892 1722 1117 632 315 382 152 345 332 317 385 458 536 714 787 597 623 515 340 311 407 241 418 72 80 74 146
0 0 0 2 808 1475 2114 1722 1147 531 507 399 262 458 432 420 455 498 642 732 648 549 439 423 431 390 496 372 352 302 99 69 87
0 0 1 22 367 1423 1794 1620 1109 1020 788 415 681 720 747 714 725 757 881 877 676 605 577 559 340 424 466 370 287 167 41 92 167
2 30 253 337 115 828 1815 1538 1219 1231 737 645 829 839 842 953 918 952 1023 1029 806 721 695 433 618 526 421 371 285 254 79 56 211
92 138 362 519 598 1014 1933 1674 1600 1243 679 869 817 829 1041 1145 1128 1202 1187 1095 873 825 720 465 46 414 601 467 453 129 103 12 0
126 239 495 1010 1079 1370 2038 1760 1501 877 564 841 952 1032 1146 1137 1292 1336 1229 1136 936 889 538 50 478 590 453 496 339 72 1 12 32
166 262 490 961 1385 1858 1880 1601 1303 604 645 921 1342 1202 1119 1242 1328 1169 986 892 685 729 576 655 602 411 393 172 136 54 45 52 17
400 419 541 934 1315 1628 1536 1240 798 1189 1341 1572 1660 1554 1455 1296 1113 899 1011 672 499 1046 798 582 425 308 249 169 18 52 19 0 0
686 799 886 937 1273 1524 1030 1623 1770 2154 2228 2205 2102 2156 2065 1733 1356 1299 1057 732 857 723 608 385 302 143 79 84 63 3 0 0 0
1210 1225 1076 1190 1308 1065 609 331 194 193 806 1663 1965 2396 2038 1646 1471 1000 746 126 53 226 0 0 10 0 0 0 0 0 0 0 0
1307 1207 1162 644 309 207 0 0 385 444 15 1233 1478 1290 1125 953 734 300 329 142 0 0 0 0 0 0 0 0 0 0 0 0 0
944 961 772 310 6 195 27 48 637 837 790 738 827 786 701 324 76 177 310 387 485 315 0 0 0 0 0 0 0 0 0 0 0
CIN
-37 -52 -55 -51 -46 -56 -54 -44 -31 -48 -87 -112 -131 -177 -288 -329 -310 -292 -212 -104 -168 -272 0 -209 -32 -215 -158 -142 -90 -81 -44 -57 -21
-9 -29 -37 -57 -36 -22 -42 -38 -48 -75 -74 -103 -136 -183 -153 -146 -177 -197 -200 -165 -190 -246 -128 -195 -200 -185 -164 -84 -56 -14 -51 -17 -14
-2 -9 -27 -26 -13 -21 -37 -37 -41 -92 -73 -71 -160 -173 -149 -133 -203 -221 -150 -149 -178 -143 -139 -109 -96 -101 -90 -80 -45 -28 -64 -46 -39
0 -23 -8 -21 -23 -19 -44 -41 -34 -122 -110 -77 -159 -189 -162 -192 0 0 -188 -174 -175 -161 -71 -57 -39 -33 -36 -31 -30 -9 -14 -13 -10
0 -37 -26 -17 -34 -15 -33 -39 -42 -127 -172 -133 -149 -174 -177 -197 -232 -222 -204 -164 -129 -132 -115 -100 -101 -60 -31 -13 -5 -3 -14 -11 -8
-27 -43 -6 -21 -16 -21 -24 -45 -50 -148 -187 -169 -155 -168 -200 -198 -205 -186 -143 -104 -59 -56 -62 -97 -29 -6 -15 -9 -3 -3 -6 -4 -5
-38 -22 -19 -16 -23 -20 -33 -58 -102 -130 -182 -166 -159 -179 -187 -182 -171 -148 -102 -60 -9 -22 -6 -3 -2 -6 -6 -5 -3 -5 -6 -4 -7
0 -36 -15 -11 -16 -13 -30 -62 -118 -138 -182 -162 -148 -165 -147 -140 -123 -101 -77 -40 -21 -22 -10 -3 -1 -9 -3 -1 -1 -2 -13 -13 -12
0 0 0 -24 -15 -20 -21 -54 -116 -171 -185 -164 -163 -126 -123 -128 -104 -78 -54 -12 -3 -14 -13 -6 -4 -3 -1 -7 -3 -15 -20 -25 -15
0 0 0 -32 -4 -16 -20 -64 -111 -212 -164 -168 -161 -114 -103 -119 -92 -66 -30 -26 -31 -26 -17 -18 -13 -12 -7 -11 -6 -13 -19 -29 -40
0 0 -97 -109 -18 -8 -23 -52 -84 -117 -135 -149 -90 -92 -85 -89 -62 -41 -28 -26 -26 -13 -14 -13 -31 -20 -12 -15 -13 -25 -39 -40 -38
-96 -91 -44 -47 -52 -5 -16 -32 -61 -86 -115 -96 -67 -78 -77 -66 -52 -43 -24 -6 -6 -7 -7 -10 -12 -9 -17 -11 -12 -28 -59 -110 -52
-39 -46 -43 -29 -15 -19 -13 -22 -18 -41 -84 -59 -62 -72 -72 -64 -51 -19 -4 -2 -6 -9 -14 -20 -43 -17 -2 -4 -7 -78 -65 -64 0
-47 -38 -32 -20 -17 -18 -21 -21 -27 -71 -75 -33 -34 -40 -47 -36 -18 -4 -3 -4 -12 -20 -27 -63 -42 -20 -15 -12 -11 -33 -25 -77 -82
-12 -16 -20 -12 -8 -14 -24 -24 -15 -55 -44 -29 -21 -26 -17 -8 -7 -7 -8 -10 -19 -27 -36 -36 -24 -14 -20 -19 -35 -67 -79 -92 -109
-8 -14 -4 -7 -12 -13 -20 -33 -19 -6 -14 -22 -29 -20 -7 -8 -12 -16 -20 -28 -37 -14 -15 -10 -8 -16 -17 -9 -48 -64 -62 -1 0
-7 -5 -5 -7 -8 -14 -18 -10 -17 -25 -47 -60 -45 -29 -18 -9 -12 -20 -22 -21 -18 -12 -13 -22 -27 -29 -20 -44 -43 -67 0 0 0
-15 -16 -23 -40 -45 -111 -209 -193 -283 -151 -44 -7 -5 -3 -3 -11 -7 -22 -21 -86 -57 -60 0 0 -36 0 0 0 0 0 0 0 0
-34 -66 -87 -149 -203 -255 0 0 -29 -36 -8 -23 -13 -15 -8 -3 -4 -19 -16 -95 0 0 0 0 0 0 0 0 0 0 0 0 0
-77 -113 -117 -144 -121 -135 -164 -146 -46 -106 -61 -40 -22 -18 -18 -21 -32 -4 -12 -20 -30 -36 0 0 0 0 0 0 0 0 0 0 0
Wind_Speed
12 13 12 11 11 12 10 8 5 3 3 5 8 10 14 20 21 20 17 20 19 20 20 20 21 21 19 21 21 20 21 21 22
9 11 14 13 12 11 11 9 7 3 1 2 5 8 12 16 18 19 19 20 19 18 20 21 22 21 20 21 21 20 19 20 23
10 7 13 13 13 12 12 10 7 4 3 1 3 6 9 12 16 17 18 18 18 19 19 18 18 19 19 23 24 23 23 22 21
10 10 7 11 10 11 12 11 9 5 5 3 1 4 8 13 17 17 17 18 17 19 19 19 19 19 19 21 22 21 22 21 19
11 14 22 9 7 8 11 10 9 7 5 5 2 3 7 11 14 16 17 18 18 19 20 19 19 19 19 20 21 22 22 21 23
11 9 8 3 5 9 11 11 10 8 6 5 3 3 6 9 12 14 16 17 18 18 18 18 17 19 21 22 23 22 19 19 21
13 9 7 5 6 9 12 12 11 9 8 5 3 2 5 8 11 13 15 16 16 17 16 17 20 21 21 21 20 20 19 19 19
19 17 10 8 8 9 13 12 11 9 7 5 3 3 8 10 10 12 13 14 15 15 17 19 21 21 20 21 20 21 21 20 21
23 22 20 15 10 11 12 13 12 9 7 5 5 4 6 8 10 11 12 13 13 15 18 22 22 22 22 23 22 21 21 22 24
26 28 24 23 11 10 11 12 12 10 8 6 6 6 7 9 9 12 12 12 13 16 20 21 22 23 23 23 21 19 19 20 22
28 24 22 21 10 6 8 10 10 8 7 7 6 5 7 8 9 11 11 12 15 16 18 20 22 23 24 21 21 17 20 23 22
21 22 20 16 13 4 5 9 8 7 6 6 5 6 8 9 10 11 12 14 16 17 18 21 22 21 22 21 20 22 24 26 26
20 22 20 16 11 5 5 7 8 7 7 6 5 6 7 9 11 12 14 16 16 17 19 21 26 23 21 20 21 24 24 25 23
19 17 16 13 9 3 4 6 7 7 6 5 5 6 9 11 12 14 16 17 17 18 20 26 24 26 26 21 19 21 23 18 19
16 14 12 9 7 3 2 3 4 7 6 6 8 10 13 15 14 15 16 18 20 21 23 23 24 22 21 18 20 27 23 19 15
14 11 10 6 4 4 2 3 4 2 7 11 15 16 17 18 18 17 19 20 22 22 22 22 23 22 21 21 25 28 21 25 25
14 11 8 7 5 4 4 4 5 10 12 15 19 21 19 18 19 19 19 19 18 18 24 24 23 25 25 28 27 23 24 27 30
12 12 9 10 6 7 13 16 9 16 21 22 24 24 20 20 20 21 21 24 23 19 25 26 25 25 27 26 24 24 25 26 31
10 9 10 9 11 12 13 22 18 14 28 19 19 21 20 20 22 24 20 19 23 27 23 23 22 24 24 22 23 26 27 26 30
11 12 11 9 12 10 14 16 23 18 18 19 20 21 25 25 23 25 21 20 23 24 23 23 23 22 22 24 22 23 26 29 29
Wind_Direction
186 181 182 183 178 174 171 170 166 136 80 45 38 29 20 15 15 17 17 6 2 359 357 357 356 358 359 356 355 356 355 356 354
230 193 188 186 181 181 178 182 188 190 168 39 26 24 14 13 17 18 11 4 360 0 358 356 359 356 354 353 353 352 351 352 350
309 205 189 186 188 186 181 187 193 196 208 216 17 18 14 13 12 12 13 9 3 358 357 357 355 353 352 349 347 348 345 343 342
337 317 225 190 191 190 182 182 189 199 208 212 303 7 11 7 5 7 10 7 4 357 356 356 353 351 348 346 346 345 344 343 341
355 328 302 188 200 200 185 188 195 200 210 219 259 342 358 2 4 7 4 3 0 357 355 354 352 349 346 343 342 341 340 341 337
358 350 353 191 228 208 195 198 200 203 206 211 228 318 352 360 1 2 0 359 358 358 356 354 352 349 345 342 341 341 339 336 337
354 342 324 258 257 224 203 197 192 193 195 206 230 267 331 346 351 357 358 357 357 356 355 354 350 348 346 344 342 342 336 336 334
334 339 315 276 242 233 213 203 199 201 205 220 250 291 332 343 350 353 355 354 355 355 353 349 347 348 347 346 345 343 350 346 339
328 329 320 309 242 229 217 209 206 209 213 237 284 297 317 334 340 346 349 350 351 349 347 347 347 348 347 345 345 345 344 341 339
326 326 320 311 282 245 227 210 207 215 223 252 251 283 313 329 335 339 340 344 345 345 346 346 345 343 343 344 344 344 344 342 340
326 330 325 318 313 286 225 202 205 214 229 236 238 266 305 321 327 330 332 333 336 340 343 344 340 338 335 341 341 339 343 340 338
328 333 337 332 324 288 201 188 195 203 216 213 235 276 301 314 321 322 324 325 330 335 337 340 340 340 337 336 338 344 342 342 338
333 329 336 338 337 328 179 179 177 190 193 206 237 280 303 316 318 319 321 323 327 335 338 335 336 336 336 338 345 345 344 337 348
332 336 338 344 344 344 146 165 172 184 197 233 264 297 313 317 316 317 320 324 329 330 329 333 334 335 337 337 339 345 346 351 344
322 328 339 346 349 32 108 170 192 197 221 261 305 316 320 321 320 320 327 326 327 327 330 331 331 333 338 340 346 341 337 347 349
306 315 322 336 337 323 292 195 220 285 312 322 327 329 326 323 325 326 323 321 325 327 328 329 332 336 337 343 345 345 345 332 339
300 308 304 316 304 307 285 275 307 310 301 320 324 323 324 327 325 323 323 319 315 323 332 336 339 340 341 341 344 345 341 338 331
318 324 331 336 339 335 334 311 327 338 335 352 337 328 333 326 325 323 322 331 321 354 339 335 335 338 338 342 343 340 339 339 323
322 322 324 315 312 319 319 325 326 345 316 339 336 333 332 330 329 329 333 336 331 338 340 341 345 343 342 345 343 334 330 336 320
319 316 310 301 307 317 318 327 322 340 331 336 335 334 331 330 330 330 332 333 333 331 334 338 342 346 348 347 348 340 331 330 322